Date,TemperatureHighF,TemperatureAvgF,TemperatureLowF,DewpointHighF,DewpointAvgF,DewpointLowF,HumidityHigh,HumidityAvg,HumidityLow,PressureMaxIn,PressureMinIn,WindSpeedMaxMPH,WindSpeedAvgMPH,GustSpeedMaxMPH,PrecipitationSumIn
2013-1-1,55.0,40.7,28.0,32.0,25.6,18.0,86,60,25,0.00,40.00,6,3,14,0.00
2013-1-2,62.0,43.6,29.0,30.0,24.7,19.0,86,55,19,0.00,40.00,9,4,17,0.00
2013-1-3,62.0,44.9,31.0,31.0,27.2,25.0,83,54,26,0.00,40.00,10,4,17,0.00
2013-1-4,59.0,47.7,32.0,31.0,26.4,22.0,86,46,25,0.00,40.00,7,4,15,0.00
2013-1-5,64.0,45.7,30.0,31.0,23.7,14.0,82,49,14,0.00,40.00,5,3,9,0.00
2013-1-6,68.0,48.9,35.0,27.0,19.5,10.0,64,36,11,0.00,40.00,5,3,9,0.00
2013-1-7,58.0,44.5,33.0,32.0,26.0,23.0,75,51,27,0.00,40.00,7,4,13,0.00
2013-1-8,62.0,44.7,30.0,31.0,26.4,23.0,83,53,23,0.00,40.00,5,3,9,0.00
2013-1-9,73.0,50.8,34.0,33.0,18.1,5.0,71,37,7,0.00,40.00,12,5,22,0.00
2013-1-10,70.0,59.5,44.0,25.0,19.4,12.0,38,22,14,0.00,40.00,12,6,24,0.00
2013-1-11,51.0,40.0,28.0,33.0,21.6,8.0,92,52,22,0.00,40.00,16,7,30,0.03
2013-1-12,46.0,34.8,24.0,18.0,9.4,-1.0,71,39,14,0.00,40.00,11,5,17,0.00
2013-1-13,50.0,32.7,21.0,13.0,6.9,-4.0,65,37,12,0.00,40.00,9,3,17,0.00
2013-1-14,44.0,31.7,19.0,12.0,6.0,-1.0,62,37,15,0.00,40.00,10,4,17,0.00
2013-1-15,48.0,31.0,16.0,10.0,2.0,-6.0,61,33,11,0.00,40.00,6,3,11,0.00
2013-1-16,65.0,40.6,21.0,12.0,6.4,2.0,52,28,10,0.00,40.00,7,4,16,0.00
2013-1-17,71.0,53.9,32.0,22.0,11.7,8.0,46,23,9,0.00,40.00,13,6,21,0.00
2013-1-18,77.0,59.7,37.0,20.0,14.2,8.0,46,19,8,0.00,40.00,6,4,12,0.00
2013-1-19,79.0,55.0,33.0,25.0,18.8,12.0,49,28,10,0.00,40.00,6,3,10,0.00
2013-1-20,80.0,57.1,39.0,33.0,25.0,18.0,54,32,15,0.00,40.00,6,3,10,0.00
2013-1-21,82.0,58.2,41.0,33.0,29.1,27.0,59,36,16,0.00,40.00,7,3,11,0.00
2013-1-22,82.0,62.5,42.0,36.0,29.6,24.0,64,33,13,0.00,40.00,9,4,14,0.00
2013-1-23,83.0,61.7,45.0,30.0,27.1,23.0,48,29,14,0.00,40.00,9,3,15,0.00
2013-1-24,66.0,59.5,55.0,51.0,41.1,24.0,81,53,27,0.00,40.00,6,3,14,0.03
2013-1-25,79.0,63.9,51.0,51.0,45.3,41.0,81,55,27,0.00,40.00,4,2,8,0.01
2013-1-26,70.0,61.3,54.0,58.0,51.0,45.0,97,71,44,0.00,40.00,11,5,21,0.56
2013-1-27,65.0,57.7,51.0,52.0,48.3,44.0,100,73,47,0.00,40.00,6,3,11,0.02
2013-1-28,57.0,51.7,44.0,51.0,38.8,25.0,85,62,41,0.00,40.00,17,7,31,0.12
2013-1-29,51.0,43.7,35.0,32.0,24.3,16.0,74,49,25,0.00,40.00,16,9,25,0.01
2013-1-30,59.0,44.5,30.0,28.0,22.8,15.0,79,48,19,0.00,40.00,8,4,12,0.00
2013-1-31,64.0,49.7,33.0,35.0,29.0,24.0,72,49,23,0.00,40.00,6,3,9,0.00
2013-2-1,75.0,52.8,33.0,34.0,27.3,20.0,73,44,13,0.00,40.00,6,4,12,0.00
2013-2-2,78.0,56.4,36.0,36.0,27.2,18.0,67,39,11,0.00,40.00,6,3,10,0.00
2013-2-3,72.0,59.6,51.0,38.0,31.0,24.0,56,36,18,0.00,40.00,5,3,9,0.00
2013-2-4,72.0,56.9,45.0,39.0,36.8,33.0,74,50,27,0.00,40.00,6,3,11,0.00
2013-2-5,75.0,57.9,41.0,44.0,38.0,30.0,84,52,20,0.00,40.00,8,4,13,0.00
2013-2-6,71.0,57.9,45.0,43.0,36.8,31.0,78,48,25,0.00,40.00,11,5,19,0.00
2013-2-7,72.0,55.8,40.0,39.0,34.1,28.0,75,48,23,0.00,40.00,5,3,11,0.00
2013-2-8,69.0,57.2,45.0,31.0,23.8,11.0,57,31,11,0.00,40.00,10,5,25,0.00
2013-2-9,54.0,44.9,37.0,38.0,27.4,20.0,86,53,29,0.00,40.00,12,6,27,0.05
2013-2-10,57.0,45.3,32.0,29.0,21.1,14.0,74,43,18,0.00,40.00,7,4,14,0.05
2013-2-11,50.0,39.4,32.0,35.0,27.4,19.0,94,66,32,0.00,40.00,15,4,25,0.16
2013-2-12,54.0,41.0,31.0,35.0,31.1,25.0,94,72,39,0.00,40.00,7,3,13,0.03
2013-2-13,61.0,44.0,27.0,30.0,24.8,18.0,83,52,19,0.00,40.00,7,3,15,0.00
2013-2-14,68.0,50.0,32.0,31.0,25.8,21.0,76,44,17,0.00,40.00,8,4,15,0.00
2013-2-15,75.0,55.5,38.0,36.0,22.1,7.0,70,35,9,0.00,40.00,11,5,19,0.00
2013-2-16,77.0,62.6,42.0,17.0,7.3,-1.0,33,14,5,0.00,40.00,11,6,21,0.00
2013-2-17,74.0,61.1,42.0,18.0,9.8,0.0,28,14,6,0.00,40.00,11,6,21,0.00
2013-2-18,72.0,55.5,42.0,24.0,16.3,7.0,39,24,8,0.00,40.00,5,3,11,0.00
2013-2-19,72.0,59.8,47.0,26.0,13.5,6.0,33,18,8,0.00,40.00,13,6,25,0.00
2013-2-20,54.0,40.9,32.0,37.0,32.0,26.0,97,72,33,0.00,40.00,17,6,28,0.22
2013-2-21,53.0,42.5,32.0,38.0,33.1,29.0,98,73,44,0.00,40.00,6,3,11,0.28
2013-2-22,56.0,44.7,34.0,37.0,32.2,25.0,94,65,34,0.00,40.00,13,5,20,0.26
2013-2-23,67.0,49.6,31.0,33.0,24.7,17.0,76,43,15,0.00,40.00,9,4,14,0.00
2013-2-24,51.0,43.9,35.0,36.0,18.5,4.0,72,41,14,0.00,40.00,19,8,34,0.00
2013-2-25,59.0,44.4,29.0,23.0,16.0,11.0,63,34,18,0.00,40.00,7,4,15,0.00
2013-2-26,64.0,46.1,31.0,24.0,18.4,10.0,72,38,14,0.00,40.00,13,5,22,0.00
2013-2-27,65.0,48.6,32.0,21.0,11.9,0.0,59,28,8,0.00,40.00,9,4,16,0.00
2013-2-28,68.0,50.6,33.0,20.0,12.9,8.0,50,25,10,0.00,40.00,8,4,16,0.00
2013-3-1,76.0,56.8,36.0,22.0,16.8,11.0,48,24,9,0.00,40.00,7,4,11,0.00
2013-3-2,85.0,62.3,39.0,33.0,21.4,6.0,53,27,5,0.00,40.00,5,3,11,0.00
2013-3-3,80.0,66.5,46.0,32.0,20.3,10.0,41,20,7,0.00,40.00,11,5,22,0.00
2013-3-4,73.0,65.2,56.0,29.0,24.5,14.0,33,22,13,0.00,40.00,15,7,27,0.00
2013-3-5,81.0,62.8,45.0,35.0,26.2,19.0,53,29,10,0.00,40.00,8,4,18,0.00
2013-3-6,83.0,66.8,52.0,40.0,27.9,18.0,45,26,11,0.00,40.00,7,4,14,0.00
2013-3-7,80.0,67.6,52.0,32.0,23.2,12.0,39,21,8,0.00,40.00,11,5,25,0.00
2013-3-8,67.0,58.7,47.0,48.0,35.0,26.0,58,42,27,0.00,40.00,16,8,35,0.01
2013-3-9,54.0,47.3,42.0,37.0,33.8,28.0,80,60,44,0.00,40.00,10,6,18,0.03
2013-3-10,67.0,54.7,41.0,40.0,31.7,21.0,81,46,20,0.00,40.00,7,4,16,0.03
2013-3-11,73.0,56.9,40.0,35.0,28.8,26.0,64,38,18,0.00,40.00,9,4,16,0.00
2013-3-12,83.0,62.6,39.0,34.0,27.9,22.0,58,31,11,0.00,40.00,7,4,14,0.00
2013-3-13,90.0,69.0,44.0,33.0,25.4,18.0,56,25,7,0.00,40.00,7,4,15,0.00
2013-3-14,93.0,72.4,50.0,32.0,19.2,7.0,37,18,4,0.00,40.00,10,5,16,0.00
2013-3-15,94.0,74.7,54.0,29.0,19.2,7.0,31,15,4,0.00,40.00,11,5,29,0.00
2013-3-16,89.0,75.4,60.0,26.0,17.7,4.0,25,13,4,0.00,40.00,12,7,24,0.00
2013-3-17,83.0,69.1,56.0,25.0,20.4,15.0,29,17,8,0.00,40.00,17,7,28,0.00
2013-3-18,82.0,67.5,54.0,31.0,23.2,14.0,33,20,8,0.00,40.00,9,5,16,0.00
2013-3-19,80.0,67.8,53.0,34.0,26.0,21.0,36,22,13,0.00,40.00,14,6,21,0.00
2013-3-20,82.0,67.3,51.0,31.0,26.6,23.0,41,24,12,0.00,40.00,11,4,17,0.00
2013-3-21,78.0,66.9,56.0,35.0,29.6,26.0,40,26,17,0.00,40.00,9,4,16,0.00
2013-3-22,81.0,69.3,59.0,32.0,29.1,24.0,32,23,15,0.00,40.00,12,6,24,0.00
2013-3-23,75.0,63.2,49.0,36.0,20.3,-4.0,50,24,5,0.00,40.00,16,6,32,0.00
2013-3-24,76.0,62.1,43.0,12.0,4.0,0.0,25,11,5,0.00,40.00,13,6,24,0.00
2013-3-25,81.0,63.9,46.0,19.0,11.8,6.0,24,14,8,0.00,40.00,8,4,27,0.00
2013-3-26,86.0,69.4,49.0,25.0,13.5,4.0,28,14,5,0.00,40.00,9,5,17,0.00
2013-3-27,85.0,72.1,56.0,22.0,15.9,13.0,20,12,7,0.00,40.00,11,6,20,0.00
2013-3-28,85.0,78.4,68.0,30.0,19.0,13.0,17,11,8,0.00,40.00,11,7,19,0.00
2013-3-29,86.0,72.6,57.0,34.0,19.8,12.0,26,14,7,0.00,40.00,9,4,17,0.00
2013-3-30,84.0,71.2,57.0,28.0,18.4,-99.9,23,15,7,0.00,40.00,8,4,17,0.00
2013-3-31,86.0,71.4,49.0,33.0,24.6,18.0,39,19,10,0.00,40.00,10,4,19,0.00
2013-4-1,83.0,69.8,57.0,34.0,26.4,18.0,34,20,13,0.00,40.00,12,5,22,0.00
2013-4-2,78.0,65.4,46.0,27.0,20.3,13.0,39,19,9,0.00,40.00,13,6,25,0.00
2013-4-3,82.0,67.0,49.0,30.0,23.7,18.0,34,21,12,0.00,40.00,11,4,19,0.00
2013-4-4,90.0,71.2,52.0,31.0,20.9,9.0,35,19,6,0.00,40.00,8,4,14,0.00
2013-4-5,88.0,75.9,60.0,29.0,24.5,19.0,23,15,10,0.00,40.00,12,6,22,0.00
2013-4-6,85.0,73.6,58.0,35.0,25.9,16.0,25,18,11,0.00,40.00,10,6,28,0.00
2013-4-7,86.0,73.2,59.0,38.0,28.8,22.0,37,21,10,0.00,40.00,10,5,26,0.00
2013-4-8,83.0,70.6,55.0,39.0,32.5,24.0,43,26,12,0.00,40.00,17,10,32,0.00
2013-4-9,64.0,54.4,46.0,45.0,33.3,19.0,95,52,20,0.00,40.00,17,6,33,0.13
2013-4-10,68.0,58.5,45.0,31.0,26.2,20.0,58,31,17,0.00,40.00,13,7,23,0.01
2013-4-11,80.0,63.4,42.0,34.0,25.6,16.0,56,27,12,0.00,40.00,13,4,20,0.00
2013-4-12,82.0,66.8,52.0,29.0,23.0,20.0,33,20,11,0.00,40.00,12,4,23,0.00
2013-4-13,85.0,69.8,49.0,31.0,22.9,17.0,42,19,9,0.00,40.00,11,5,20,0.00
2013-4-14,85.0,71.0,53.0,35.0,26.9,20.0,33,21,9,0.00,40.00,11,6,24,0.00
2013-4-15,87.0,73.2,61.0,36.0,29.2,20.0,33,22,9,0.00,40.00,14,7,25,0.00
2013-4-16,85.0,73.1,62.0,37.0,29.1,21.0,35,21,10,0.00,40.00,14,9,26,0.00
2013-4-17,67.0,61.5,55.0,40.0,24.2,6.0,49,27,12,0.00,40.00,16,10,31,0.00
2013-4-18,72.0,57.6,37.0,16.0,8.4,3.0,31,15,7,0.00,40.00,10,4,17,0.00
2013-4-19,82.0,61.0,40.0,15.0,3.0,-4.0,26,12,4,0.00,40.00,10,5,18,0.00
2013-4-20,85.0,67.5,46.0,15.0,7.5,2.0,20,10,5,0.00,40.00,12,5,25,0.00
2013-4-21,89.0,75.1,56.0,24.0,14.0,9.0,21,11,5,0.00,40.00,10,5,17,0.00
2013-4-22,92.0,78.1,60.0,25.0,14.6,6.0,17,10,4,0.00,40.00,10,5,19,0.00
2013-4-23,89.0,77.6,63.0,24.0,17.5,13.0,19,11,7,0.00,40.00,12,6,23,0.00
2013-4-24,91.0,78.4,62.0,27.0,20.9,13.0,22,13,6,0.00,40.00,9,5,19,0.00
2013-4-25,85.0,74.7,62.0,31.0,23.9,13.0,24,16,7,0.00,40.00,15,8,28,0.00
2013-4-26,87.0,71.5,48.0,30.0,24.1,19.0,33,18,11,0.00,40.00,11,5,19,0.00
2013-4-27,91.0,74.2,52.0,32.0,22.2,15.0,33,16,8,0.00,40.00,9,5,20,0.00
2013-4-28,94.0,79.4,58.0,34.0,16.5,4.0,24,11,4,0.00,40.00,8,5,24,0.00
2013-4-29,98.0,76.8,57.0,23.0,14.2,9.0,20,11,4,0.00,40.00,9,4,23,0.00
2013-4-30,96.0,87.5,72.0,22.0,16.0,11.0,12,7,5,0.00,40.00,12,7,26,0.00
2013-5-1,91.0,79.3,63.0,26.0,19.6,10.0,22,12,5,0.00,40.00,9,6,19,0.00
2013-5-2,92.0,77.4,55.0,29.0,17.8,11.0,27,12,5,0.00,40.00,13,7,26,0.00
2013-5-3,87.0,75.0,67.0,19.0,14.0,9.0,14,10,6,0.00,40.00,17,8,31,0.00
2013-5-4,93.0,78.4,56.0,30.0,18.8,11.0,24,12,6,0.00,40.00,11,5,22,0.00
2013-5-5,89.0,76.6,63.0,35.0,26.9,20.0,27,17,10,0.00,40.00,11,6,22,0.00
2013-5-6,85.0,71.2,57.0,53.0,40.9,30.0,85,39,15,0.00,40.00,10,5,21,0.03
2013-5-7,84.0,71.0,58.0,44.0,33.4,20.0,42,28,10,0.00,40.00,11,6,22,0.00
2013-5-8,82.0,68.2,52.0,42.0,35.8,30.0,61,33,16,0.00,40.00,9,4,17,0.00
2013-5-9,84.0,70.1,54.0,45.0,34.0,16.0,54,30,8,0.00,40.00,8,5,16,0.00
2013-5-10,87.0,72.4,58.0,41.0,32.0,-99.9,38,25,13,0.00,40.00,15,5,38,0.00
2013-5-11,88.0,75.3,59.0,41.0,32.0,-99.9,40,23,13,0.00,40.00,15,7,24,0.00
2013-5-12,92.0,81.2,73.0,39.0,32.0,27.0,27,18,10,0.00,40.00,13,8,26,0.00
2013-5-13,96.0,81.8,61.0,35.0,25.8,15.0,28,14,7,0.00,40.00,11,6,36,0.00
2013-5-14,98.0,85.3,72.0,39.0,28.1,15.0,22,13,8,0.00,40.00,10,5,22,0.00
2013-5-15,97.0,83.1,64.0,37.0,31.6,28.0,31,17,9,0.00,40.00,14,6,24,0.00
2013-5-16,98.0,74.2,64.0,31.0,6.5,-99.9,27,14,6,0.00,40.00,10,6,20,0.00
2013-5-17,95.0,81.0,65.0,34.0,20.5,-99.9,27,14,6,0.00,40.00,12,6,21,0.00
2013-5-18,92.0,79.2,65.0,32.0,26.8,21.0,26,16,8,0.00,40.00,12,6,23,0.00
2013-5-19,91.0,79.4,59.0,46.0,35.8,24.0,50,24,9,0.00,40.00,10,6,21,0.00
2013-5-20,91.0,79.5,62.0,42.0,29.0,18.0,34,18,9,0.00,40.00,14,7,24,0.00
2013-5-21,95.0,79.9,57.0,28.0,17.6,11.0,24,11,5,0.00,40.00,8,4,18,0.00
2013-5-22,99.0,83.2,64.0,35.0,20.8,13.0,19,11,6,0.00,40.00,9,5,19,0.00
2013-5-23,99.0,84.5,68.0,39.0,27.2,16.0,28,14,5,0.00,40.00,10,6,21,0.00
2013-5-24,99.0,83.1,64.0,44.0,27.9,10.0,36,17,4,0.00,40.00,8,5,19,0.00
2013-5-25,98.0,83.4,66.0,40.0,25.4,8.0,34,15,4,0.00,40.00,11,5,21,0.00
2013-5-26,96.0,82.0,64.0,30.0,17.0,1.0,20,11,3,0.00,40.00,10,6,21,0.00
2013-5-27,97.0,80.4,60.0,25.0,15.3,4.0,20,10,3,0.00,40.00,10,4,18,0.00
2013-5-28,95.0,81.4,61.0,33.0,23.7,17.0,25,13,6,0.00,40.00,10,6,21,0.00
2013-5-29,94.0,80.5,60.0,49.0,33.5,30.0,35,20,11,0.00,40.00,12,6,20,0.00
2013-5-30,97.0,84.5,66.0,53.0,42.6,33.0,50,26,11,0.00,40.00,12,6,20,0.00
2013-5-31,98.0,85.4,67.0,58.0,45.8,33.0,57,29,12,0.00,40.00,12,6,20,0.00
2013-6-1,106.0,88.5,67.0,45.0,29.6,-99.9,32,16,6,0.00,40.00,8,4,14,0.00
2013-6-2,106.0,91.2,72.0,46.0,34.9,24.0,25,15,7,0.00,40.00,10,5,20,0.00
2013-6-3,103.0,90.7,72.0,37.0,28.1,17.0,24,12,5,0.00,40.00,11,6,23,0.00
2013-6-4,102.0,88.8,70.0,45.0,33.6,27.0,22,15,8,0.00,40.00,9,5,18,0.00
2013-6-5,101.0,86.1,65.0,43.0,27.1,16.0,29,14,5,0.00,40.00,10,5,19,0.00
2013-6-6,103.0,87.4,66.0,31.0,26.2,21.0,23,12,7,0.00,40.00,9,4,18,0.00
2013-6-7,107.0,90.6,70.0,36.0,27.7,22.0,22,12,6,0.00,40.00,9,5,18,0.00
2013-6-8,105.0,91.1,70.0,35.0,25.9,19.0,20,11,5,0.00,40.00,14,8,25,0.00
2013-6-9,103.0,89.4,72.0,39.0,27.4,13.0,26,13,4,0.00,40.00,13,6,21,0.00
2013-6-10,106.0,93.4,70.0,39.0,27.8,19.0,19,11,5,0.00,40.00,12,6,18,0.00
2013-6-11,107.0,91.3,67.0,37.0,26.1,17.0,23,11,4,0.00,40.00,12,6,24,0.00
2013-6-12,107.0,93.4,73.0,35.0,30.1,24.0,18,11,7,0.00,40.00,14,6,24,0.00
2013-6-13,103.0,90.8,74.0,51.0,40.9,29.0,31,19,11,0.00,40.00,14,7,23,0.00
2013-6-14,103.0,91.2,75.0,56.0,48.4,41.0,38,24,15,0.00,40.00,11,6,20,0.00
2013-6-15,101.0,88.9,76.0,60.0,50.3,41.0,42,27,18,0.00,40.00,10,4,19,0.00
2013-6-16,105.0,92.7,71.0,55.0,44.1,25.0,51,22,10,0.00,40.00,10,5,21,0.00
2013-6-17,105.0,90.4,69.0,39.0,29.7,24.0,26,12,7,0.00,40.00,10,4,17,0.00
2013-6-18,106.0,89.3,69.0,32.0,16.1,-18.0,22,10,1,0.00,40.00,8,4,20,0.00
2013-6-19,105.0,96.6,74.0,30.0,23.0,6.0,13,8,3,0.00,40.00,10,6,22,0.00
2013-6-20,102.0,85.0,70.0,34.0,25.7,13.0,23,14,4,0.00,40.00,7,4,13,0.00
2013-6-22,104.0,96.6,86.0,38.0,24.1,14.0,17,8,4,0.00,40.00,11,7,20,0.00
2013-6-23,103.0,91.5,71.0,35.0,25.4,14.0,23,10,5,0.00,40.00,12,6,22,0.00
2013-6-24,102.0,88.5,71.0,39.0,28.8,14.0,20,13,5,0.00,40.00,13,6,25,0.00
2013-6-25,103.0,87.7,70.0,43.0,28.4,14.0,31,14,5,0.00,40.00,8,5,17,0.00
2013-6-26,102.0,87.6,69.0,33.0,23.3,18.0,19,11,5,0.00,40.00,13,6,20,0.00
2013-6-27,108.0,89.8,68.0,43.0,30.7,18.0,21,13,8,0.00,40.00,14,5,23,0.00
2013-6-28,110.0,93.3,72.0,40.0,34.8,30.0,22,14,8,0.00,40.00,7,4,14,0.00
2013-6-29,110.0,97.7,83.0,48.0,39.6,33.0,21,14,9,0.00,40.00,16,6,29,0.00
2013-6-30,109.0,95.6,81.0,63.0,48.2,42.0,55,22,11,0.00,40.00,13,6,22,0.01
2013-7-1,109.0,90.2,76.0,63.0,57.5,48.0,55,36,16,0.00,40.00,10,4,19,0.11
2013-7-2,101.0,90.0,69.0,69.0,57.9,52.0,80,37,21,0.00,40.00,18,7,47,0.15
2013-7-3,105.0,93.1,74.0,58.0,51.5,46.0,55,27,17,0.00,40.00,12,7,32,0.14
2013-7-4,104.0,93.6,81.0,60.0,52.9,47.0,46,27,17,0.00,40.00,12,6,22,0.00
2013-7-5,101.0,85.6,76.0,67.0,60.7,54.0,67,45,28,0.00,40.00,12,5,27,0.01
2013-7-6,106.0,85.1,71.0,65.0,60.0,51.0,71,47,18,0.00,40.00,7,4,16,0.01
2013-7-7,109.0,89.6,77.0,70.0,61.0,54.0,64,42,17,0.00,40.00,11,5,33,0.23
2013-7-8,106.0,92.4,79.0,65.0,58.8,53.0,57,34,19,0.00,40.00,15,4,26,0.23
2013-7-9,100.0,89.8,77.0,71.0,64.1,58.0,80,45,29,0.00,40.00,13,6,24,0.02
2013-7-10,99.0,82.5,73.0,70.0,62.6,-99.9,89,56,34,0.00,40.00,7,4,20,0.12
2013-7-11,95.0,82.8,72.0,73.0,67.6,62.0,93,63,38,0.00,40.00,15,4,21,0.07
2013-7-12,94.0,82.5,72.0,70.0,66.1,58.0,88,60,31,0.00,40.00,9,4,17,0.33
2013-7-13,100.0,87.5,75.0,69.0,64.0,57.0,80,50,27,0.00,40.00,12,4,28,0.33
2013-7-14,102.0,91.2,79.0,65.0,60.2,55.0,59,38,23,0.00,40.00,12,5,19,0.00
2013-7-15,103.0,89.6,78.0,65.0,60.6,54.0,60,40,21,0.00,40.00,12,5,24,0.00
2013-7-16,89.0,83.5,77.0,66.0,63.3,61.0,69,51,40,0.00,40.00,8,5,16,0.00
2013-7-17,99.0,87.9,75.0,66.0,57.0,49.0,73,40,21,0.00,40.00,10,6,21,0.00
2013-7-18,98.0,88.6,82.0,59.0,54.5,51.0,40,32,24,0.00,40.00,13,9,27,0.00
2013-7-19,97.0,85.5,78.0,62.0,58.7,53.0,53,41,31,0.00,40.00,11,6,20,0.00
2013-7-20,95.0,79.6,74.0,70.0,64.2,-99.9,85,63,36,0.00,40.00,7,3,22,0.01
2013-7-21,92.0,83.0,72.0,69.0,64.8,59.0,87,57,34,0.00,40.00,12,5,17,0.01
2013-7-22,97.0,84.3,72.0,69.0,63.6,58.0,84,53,32,0.00,40.00,10,5,20,0.00
2013-7-23,98.0,85.1,73.0,63.0,60.1,55.0,70,45,27,0.00,40.00,13,5,23,0.00
2013-7-24,93.0,84.3,76.0,71.0,63.0,55.0,85,51,36,0.00,40.00,11,4,31,0.34
2013-7-25,96.0,81.2,75.0,72.0,69.2,66.0,83,69,38,0.00,40.00,4,3,11,0.46
2013-7-26,98.0,80.4,73.0,74.0,69.1,64.0,91,72,33,0.00,40.00,10,3,19,0.07
2013-7-27,95.0,83.7,72.0,72.0,65.5,58.0,85,57,34,0.00,40.00,11,4,20,0.01
2013-7-28,102.0,89.0,75.0,67.0,56.4,43.0,73,38,19,0.00,40.00,8,4,27,0.00
2013-7-29,101.0,87.9,78.0,52.0,47.2,44.0,37,26,15,0.00,40.00,8,4,16,0.00
2013-7-30,104.0,90.1,73.0,61.0,51.6,48.0,51,29,17,0.00,40.00,11,4,23,0.00
2013-7-31,107.0,89.6,79.0,60.0,55.2,49.0,48,33,17,0.00,40.00,11,4,22,0.00
2013-8-1,94.0,86.8,80.0,61.0,58.2,54.0,50,39,30,0.00,40.00,8,4,23,0.00
2013-8-2,98.0,85.0,76.0,67.0,61.7,56.0,59,46,34,0.00,40.00,8,3,12,0.00
2013-8-3,103.0,88.3,70.0,65.0,57.9,52.0,71,40,20,0.00,40.00,11,5,19,0.00
2013-8-4,96.0,87.0,79.0,62.0,56.8,52.0,49,37,25,0.00,40.00,6,3,10,0.00
2013-8-5,98.0,84.1,70.0,66.0,56.9,51.0,84,43,24,0.00,40.00,12,6,21,0.13
2013-8-6,88.0,76.9,70.0,69.0,65.0,58.0,95,69,39,0.00,40.00,9,4,16,0.16
2013-8-7,97.0,81.9,67.0,67.0,57.2,45.0,86,49,19,0.00,40.00,13,5,21,0.01
2013-8-8,101.0,86.5,69.0,57.0,46.9,36.0,57,29,12,0.00,40.00,9,4,16,0.00
2013-8-9,105.0,90.1,66.0,45.0,40.7,36.0,38,19,11,0.00,40.00,8,4,17,0.00
2013-8-10,102.0,90.3,76.0,48.0,39.9,32.0,33,18,11,0.00,40.00,9,4,17,0.00
2013-8-11,103.0,88.7,74.0,58.0,50.3,32.0,39,28,16,0.00,40.00,9,5,31,0.00
2013-8-12,104.0,92.6,72.0,61.0,51.7,31.0,51,28,12,0.00,40.00,11,5,21,0.00
2013-8-13,105.0,88.4,69.0,43.0,35.1,-99.9,34,17,9,0.00,40.00,12,5,19,0.00
2013-8-14,107.0,90.0,78.0,62.0,48.8,38.0,45,26,14,0.00,40.00,11,5,26,0.00
2013-8-15,106.0,83.6,76.0,60.0,43.7,-99.9,53,31,16,0.00,40.00,14,4,28,0.00
2013-8-16,109.0,89.3,76.0,61.0,49.5,-99.9,50,29,14,0.00,40.00,8,4,21,0.00
2013-8-17,110.0,91.4,77.0,63.0,52.5,-99.9,54,31,14,0.00,40.00,11,5,25,0.00
2013-8-18,108.0,91.4,80.0,58.0,52.3,47.0,41,28,14,0.00,40.00,11,5,22,0.00
2013-8-19,105.0,85.4,78.0,59.0,43.9,-99.9,43,29,15,0.00,40.00,8,4,20,0.00
2013-8-20,105.0,85.2,80.0,72.0,57.1,-99.9,76,43,22,0.00,40.00,7,4,17,0.26
2013-8-21,98.0,84.2,73.0,67.0,60.7,53.0,79,49,25,0.00,40.00,10,4,17,0.01
2013-8-22,102.0,84.4,73.0,66.0,59.4,53.0,69,46,20,0.00,40.00,8,4,25,0.08
2013-8-23,101.0,84.1,69.0,65.0,59.4,54.0,78,48,22,0.00,40.00,9,5,18,0.08
2013-8-24,94.0,80.8,71.0,69.0,58.1,-99.9,92,50,31,0.00,40.00,11,5,17,0.13
2013-8-25,94.0,77.7,71.0,73.0,68.5,61.0,95,77,38,0.00,40.00,10,4,21,0.27
2013-8-26,101.0,79.9,72.0,74.0,68.9,55.0,100,75,25,0.00,40.00,10,4,31,0.51
2013-8-27,99.0,76.9,67.0,71.0,66.1,55.0,96,77,24,0.00,40.00,10,4,18,0.42
2013-8-28,98.0,89.6,78.0,67.0,60.2,53.0,68,40,24,0.00,40.00,11,7,21,0.00
2013-8-29,90.0,80.1,73.0,70.0,66.5,62.0,84,65,42,0.00,40.00,9,4,15,0.00
2013-8-30,91.0,80.8,73.0,73.0,67.4,63.0,95,66,42,0.00,40.00,5,3,11,0.01
2013-8-31,99.0,83.5,71.0,68.0,60.8,-99.9,82,51,28,0.00,40.00,12,4,21,0.01
2013-9-1,101.0,87.3,73.0,66.0,59.9,53.0,66,42,25,0.00,40.00,12,5,19,0.00
2013-9-2,98.0,85.5,76.0,66.0,59.5,52.0,62,44,23,0.00,40.00,9,5,15,0.00
2013-9-3,104.0,84.5,72.0,63.0,59.1,55.0,64,44,23,0.00,40.00,11,4,24,0.00
2013-9-4,103.0,88.6,69.0,64.0,52.2,43.0,65,34,15,0.00,40.00,13,6,22,0.00
2013-9-5,104.0,91.1,73.0,54.0,47.4,43.0,42,24,14,0.00,40.00,10,6,22,0.00
2013-9-6,103.0,85.9,73.0,61.0,54.4,46.0,55,36,21,0.00,40.00,10,4,25,0.11
2013-9-7,91.0,78.1,72.0,69.0,60.5,-99.9,79,58,34,0.00,40.00,9,4,15,0.03
2013-9-8,87.0,77.0,71.0,69.0,65.1,61.0,88,68,42,0.00,40.00,8,4,17,0.04
2013-9-9,86.0,75.5,69.0,70.0,66.3,62.0,96,75,47,0.00,40.00,5,3,12,0.22
2013-9-10,88.0,77.4,65.0,67.0,60.6,54.0,94,59,36,0.00,40.00,11,5,20,0.52
2013-9-11,94.0,79.5,64.0,64.0,57.0,50.0,84,51,24,0.00,40.00,8,4,17,0.00
2013-9-12,98.0,82.7,67.0,61.0,55.8,49.0,69,43,24,0.00,40.00,12,5,20,0.00
2013-9-13,99.0,85.5,70.0,66.0,57.0,45.0,72,41,17,0.00,40.00,9,4,16,0.00
2013-9-14,101.0,84.8,69.0,65.0,53.6,-99.9,74,40,16,0.00,40.00,7,4,14,0.00
2013-9-15,101.0,88.7,73.0,57.0,52.7,49.0,55,32,19,0.00,40.00,13,6,19,0.00
2013-9-16,102.0,90.8,79.0,58.0,55.2,52.0,49,31,20,0.00,40.00,13,6,25,0.00
2013-9-17,102.0,91.2,78.0,60.0,54.9,48.0,47,31,20,0.00,40.00,9,5,15,0.00
2013-9-18,88.0,81.3,74.0,52.0,45.9,35.0,46,31,16,0.00,40.00,6,3,13,0.00
2013-9-19,101.0,85.5,67.0,53.0,45.1,39.0,49,26,15,0.00,40.00,8,4,14,0.00
2013-9-20,101.0,84.5,67.0,55.0,48.3,42.0,44,30,17,0.00,40.00,11,4,18,0.00
2013-9-21,99.0,83.3,67.0,59.0,50.8,-99.9,59,36,19,0.00,40.00,7,4,36,0.00
2013-9-22,94.0,83.0,71.0,64.0,52.3,37.0,56,37,20,0.00,40.00,14,7,26,0.00
2013-9-23,91.0,76.5,58.0,46.0,38.8,33.0,53,28,14,0.00,40.00,7,4,12,0.00
2013-9-24,98.0,79.5,59.0,43.0,35.7,30.0,47,24,9,0.00,40.00,7,4,12,0.00
2013-9-25,97.0,80.5,62.0,37.0,28.4,20.0,34,17,8,0.00,40.00,11,5,22,0.00
2013-9-26,94.0,81.3,65.0,52.0,34.7,22.0,43,20,14,0.00,40.00,12,8,23,0.00
2013-9-27,81.0,73.6,66.0,56.0,45.0,25.0,60,38,17,0.00,40.00,11,7,21,0.00
2013-9-28,89.0,71.3,53.0,41.0,32.6,-99.9,41,26,17,0.00,40.00,6,3,13,0.00
2013-9-29,92.0,76.2,57.0,43.0,38.0,34.0,47,27,16,0.00,40.00,7,4,14,0.00
2013-9-30,93.0,76.1,54.0,43.0,33.0,22.0,48,24,9,0.00,40.00,9,4,15,0.00
2013-10-1,91.0,79.2,65.0,33.0,31.7,29.0,29,19,11,0.00,40.00,7,4,12,0.00
2013-10-2,92.0,75.9,58.0,46.0,38.6,32.0,46,28,14,0.00,40.00,6,4,11,0.00
2013-10-3,92.0,77.5,62.0,55.0,41.5,29.0,50,30,12,0.00,40.00,10,5,17,0.00
2013-10-4,86.0,73.6,61.0,47.0,38.0,31.0,40,29,18,0.00,40.00,9,5,18,0.00
2013-10-5,84.0,68.5,52.0,32.0,18.9,9.0,31,17,7,0.00,40.00,11,5,19,0.00
2013-10-6,90.0,72.5,47.0,27.0,17.1,10.0,28,14,6,0.00,40.00,10,6,20,0.00
2013-10-7,95.0,77.1,54.0,31.0,24.8,14.0,25,15,10,0.00,40.00,9,3,20,0.00
2013-10-8,91.0,74.8,58.0,35.0,29.2,23.0,32,20,12,0.00,40.00,10,4,19,0.00
2013-10-9,89.0,76.1,61.0,45.0,34.7,25.0,33,23,15,0.00,40.00,12,6,23,0.00
2013-10-10,73.0,64.5,53.0,48.0,41.9,38.0,58,44,28,0.00,40.00,11,7,22,0.00
2013-10-11,78.0,61.3,46.0,45.0,39.0,33.0,77,48,21,0.00,40.00,7,4,14,0.00
2013-10-12,87.0,66.5,48.0,41.0,32.6,-99.9,60,33,14,0.00,40.00,6,3,14,0.00
2013-10-13,89.0,75.2,60.0,46.0,37.2,32.0,42,27,15,0.00,40.00,12,6,21,0.00
2013-10-14,83.0,69.2,53.0,46.0,37.3,30.0,58,34,17,0.00,40.00,8,4,14,0.00
2013-10-15,83.0,67.9,53.0,42.0,31.6,24.0,45,28,14,0.00,40.00,10,4,18,0.00
2013-10-16,81.0,63.6,49.0,31.0,20.5,6.0,39,22,6,0.00,40.00,7,3,13,0.00
2013-10-17,81.0,63.0,44.0,24.0,17.5,11.0,36,19,9,0.00,40.00,7,3,13,0.00
2013-10-18,83.0,67.1,46.0,25.0,20.9,15.0,31,18,11,0.00,40.00,7,4,15,0.00
2013-10-19,87.0,66.0,45.0,26.0,15.4,-99.9,33,17,6,0.00,40.00,9,4,14,0.00
2013-10-20,85.0,70.2,45.0,23.0,15.1,10.0,25,13,8,0.00,40.00,12,4,18,0.00
2013-10-21,86.0,68.1,48.0,24.0,15.2,12.0,26,14,7,0.00,40.00,10,4,17,0.00
2013-10-22,92.0,71.8,48.0,25.0,17.8,10.0,28,15,5,0.00,40.00,11,5,21,0.00
2013-10-23,93.0,78.4,59.0,33.0,25.7,19.0,23,15,8,0.00,40.00,7,4,15,0.00
2013-10-24,92.0,73.9,55.0,32.0,26.4,21.0,30,18,10,0.00,40.00,9,4,17,0.00
2013-10-25,87.0,69.8,53.0,32.0,26.8,23.0,32,21,12,0.00,40.00,10,4,15,0.00
2013-10-26,89.0,67.6,48.0,32.0,23.9,-99.9,37,22,10,0.00,40.00,6,3,11,0.00
2013-10-27,91.0,72.9,57.0,35.0,26.8,21.0,32,20,9,0.00,40.00,8,4,15,0.00
2013-10-28,82.0,68.4,60.0,34.0,27.4,-99.9,34,24,12,0.00,40.00,13,5,22,0.00
2013-10-29,82.0,70.0,55.0,38.0,32.8,28.0,52,27,14,0.00,40.00,14,6,25,0.00
2013-10-30,70.0,57.7,46.0,41.0,33.8,20.0,64,43,21,0.00,40.00,11,4,22,0.00
2013-10-31,75.0,60.0,38.0,30.0,22.9,18.0,44,26,12,0.00,40.00,8,4,15,0.00
2013-11-1,81.0,61.6,40.0,29.0,21.9,17.0,40,24,11,0.00,40.00,6,4,11,0.00
2013-11-2,88.0,70.3,48.0,26.0,15.4,-99.9,34,15,6,0.00,40.00,9,5,16,0.00
2013-11-3,81.0,68.7,55.0,55.0,46.4,38.0,75,48,25,0.00,40.00,9,5,21,0.15
2013-11-4,80.0,67.6,51.0,51.0,43.6,40.0,67,44,25,0.00,40.00,10,6,17,0.00
2013-11-5,73.0,61.8,51.0,47.0,41.5,36.0,73,49,29,0.00,40.00,9,5,19,0.00
2013-11-6,78.0,61.0,41.0,42.0,24.3,5.0,74,35,7,0.00,40.00,11,5,22,0.00
2013-11-7,83.0,74.2,64.0,27.0,18.3,-7.0,22,12,5,0.00,40.00,12,8,22,0.00
2013-11-8,83.0,66.5,50.0,35.0,30.8,26.0,46,28,16,0.00,40.00,7,4,14,0.00
2013-11-9,85.0,65.6,48.0,38.0,31.8,-99.9,54,32,17,0.00,40.00,7,3,11,0.00
2013-11-10,89.0,70.2,49.0,41.0,34.4,31.0,52,29,15,0.00,40.00,5,3,13,0.00
2013-11-11,90.0,69.8,48.0,41.0,34.6,30.0,54,30,14,0.00,40.00,8,4,14,0.00
2013-11-12,87.0,76.3,58.0,43.0,37.1,29.0,40,25,18,0.00,40.00,16,10,29,0.00
2013-11-13,80.0,71.5,61.0,46.0,41.7,39.0,49,35,26,0.00,40.00,13,7,25,0.00
2013-11-14,82.0,65.1,49.0,46.0,38.8,29.0,69,42,19,0.00,40.00,8,4,13,0.00
2013-11-15,78.0,66.7,56.0,50.0,43.5,31.0,60,43,30,0.00,40.00,10,4,22,0.00
2013-11-16,76.0,65.4,57.0,51.0,42.6,-99.9,69,47,21,0.00,40.00,11,6,17,0.00
2013-11-17,77.0,64.9,53.0,50.0,44.3,39.0,76,49,30,0.00,40.00,7,3,12,0.00
2013-11-18,81.0,64.9,50.0,49.0,43.1,38.0,75,49,23,0.00,40.00,7,4,14,0.00
2013-11-19,81.0,62.4,47.0,44.0,37.6,30.0,71,44,16,0.00,40.00,7,3,13,0.00
2013-11-20,76.0,62.3,49.0,44.0,37.5,33.0,62,42,24,0.00,40.00,10,4,18,0.00
2013-11-21,74.0,64.8,54.0,52.0,41.6,37.0,79,44,26,0.00,40.00,8,3,18,0.01
2013-11-22,66.0,56.6,49.0,57.0,51.0,47.0,97,83,53,0.00,40.00,7,4,15,0.66
2013-11-23,58.0,49.1,46.0,50.0,44.6,-99.9,100,89,60,0.00,40.00,6,3,12,1.19
2013-11-24,63.0,51.1,44.0,47.0,42.7,37.0,99,76,44,0.00,40.00,7,3,14,0.05
2013-11-25,61.0,47.7,37.0,43.0,39.7,36.0,98,77,46,0.00,40.00,6,3,12,0.01
2013-11-26,67.0,57.0,40.0,41.0,30.4,21.0,95,43,21,0.00,40.00,15,9,29,0.01
2013-11-27,65.0,58.0,46.0,30.0,21.4,18.0,46,24,19,0.00,40.00,12,7,25,0.00
2013-11-28,76.0,56.5,37.0,39.0,31.4,25.0,74,43,20,0.00,40.00,6,3,10,0.00
2013-11-29,77.0,59.3,44.0,44.0,38.3,31.0,72,49,21,0.00,40.00,4,3,9,0.00
2013-11-30,74.0,56.4,45.0,47.0,41.2,-99.9,87,62,35,0.00,40.00,4,2,6,0.00
2013-12-1,73.0,57.0,47.0,49.0,44.7,38.0,89,68,28,0.00,40.00,6,3,10,0.00
2013-12-2,73.0,56.5,42.0,45.0,39.0,34.0,87,57,24,0.00,40.00,6,3,9,0.00
2013-12-3,76.0,59.1,42.0,41.0,32.3,18.0,77,43,11,0.00,40.00,5,4,16,0.00
2013-12-4,69.0,59.5,48.0,47.0,40.1,32.0,83,51,28,0.00,40.00,12,6,21,0.00
2013-12-5,51.0,44.6,34.0,46.0,37.2,28.0,98,78,47,0.00,40.00,9,4,15,0.26
2013-12-6,54.0,40.4,29.0,32.0,26.4,20.0,94,63,27,0.00,40.00,6,3,12,0.01
2013-12-7,60.0,43.7,28.0,32.0,23.1,-99.9,93,53,17,0.00,40.00,11,4,17,0.01
2013-12-8,57.0,48.2,42.0,38.0,35.4,24.0,77,62,43,0.00,40.00,8,4,15,0.00
2013-12-9,53.0,42.3,31.0,37.0,25.3,16.0,79,55,26,0.00,40.00,7,3,11,0.00
2013-12-10,65.0,45.5,28.0,29.0,22.5,15.0,81,47,14,0.00,40.00,6,3,14,0.00
2013-12-11,75.0,53.8,35.0,38.0,31.0,23.0,69,46,26,0.00,40.00,6,3,14,0.00
2013-12-12,74.0,60.8,43.0,41.0,36.4,33.0,71,42,28,0.00,40.00,10,4,16,0.00
2013-12-13,64.0,48.6,35.0,36.0,32.2,29.0,86,57,29,0.00,40.00,6,3,10,0.00
2013-12-14,66.0,47.5,36.0,35.0,27.4,-99.9,82,54,21,0.00,40.00,6,3,11,0.00
2013-12-15,70.0,52.9,37.0,29.0,24.5,20.0,59,36,16,0.00,40.00,8,4,12,0.00
2013-12-16,77.0,55.3,38.0,30.0,26.5,23.0,65,38,14,0.00,40.00,6,4,9,0.00
2013-12-17,85.0,61.2,40.0,30.0,25.0,18.0,56,30,9,0.00,40.00,7,4,12,0.00
2013-12-18,81.0,61.3,46.0,30.0,25.9,17.0,46,29,9,0.00,40.00,6,3,10,0.00
2013-12-19,72.0,59.8,49.0,28.0,25.5,19.0,38,28,15,0.00,40.00,11,5,20,0.00
2013-12-20,56.0,48.2,43.0,45.0,37.8,26.0,97,70,32,0.00,40.00,12,5,24,0.56
2013-12-21,52.0,45.9,42.0,42.0,37.0,-99.9,98,76,53,0.00,40.00,12,4,21,0.15
2013-12-22,61.0,47.2,36.0,42.0,36.8,34.0,92,70,42,0.00,40.00,5,3,10,0.01
2013-12-23,67.0,48.6,32.0,38.0,30.1,21.0,91,59,17,0.00,40.00,9,4,17,0.00
2013-12-24,70.0,53.8,35.0,34.0,28.4,24.0,69,43,18,0.00,40.00,6,3,9,0.00
2013-12-25,70.0,51.7,35.0,36.0,30.0,16.0,81,50,20,0.00,40.00,11,4,25,0.00
2013-12-26,69.0,58.4,43.0,25.0,19.4,15.0,42,23,14,0.00,40.00,11,6,25,0.00
2013-12-27,71.0,58.5,38.0,23.0,16.9,10.0,52,22,12,0.00,40.00,12,7,25,0.00
2013-12-28,67.0,51.5,35.0,29.0,20.1,-99.9,52,32,19,0.00,40.00,6,3,15,0.00
2013-12-29,66.0,51.4,37.0,33.0,27.8,25.0,70,43,22,0.00,40.00,8,4,11,0.00
2013-12-30,68.0,50.1,33.0,35.0,28.0,23.0,83,48,19,0.00,40.00,6,3,10,0.00
2013-12-31,74.0,51.6,33.0,29.0,24.3,16.0,68,41,11,0.00,40.00,5,3,11,0.00
2014-1-1,72.0,51.8,37.0,31.0,26.3,21.0,66,42,15,0.00,40.00,5,3,10,0.00
2014-1-2,76.0,57.4,38.0,34.0,25.5,21.0,68,35,13,0.00,40.00,11,4,17,0.00